Погода в Покуре

Россия / Ханты-Мансийский автономный округ - Югра     61°00′00″N   75°29′08″E
темп.,
°C
ветер,
м/с
пор.,
м/с
влажн.,
%
обл.,
%
осадки,
мм/ч
давл.,
гПа
погр.,
м
11 апреля, вс
вс1123:00+3зюз37100100 3.4 1036214
02:00+1зсз23100100 1.2 103776
05:00+1св11100100 1.6 103732
08:00+1вюв35100100 0.6 1036138
11:00+2ююв37100100 3.1 1035196
14:00+4ююз51098100 0.9 1032404
17:00+5ююз51295100 0.9 1029449
20:00+5юз61491100 0.3 1026464
12 апреля, пн
пн1223:00+5юз61491100 1.1 1024477
02:00+4зюз51295100 0.8 1023401
05:00+4з51197100 1.3 1023525
08:00+3з512875 0.0 1024683
11:00+5зсз610788 0.1 1025928
14:00+6зсз711685 0.0 10261245
17:00+5зсз712715 0.1 10281112
20:00+2зсз511825 0.0 1029372
13 апреля, вт
вт1323:00+1з513805 0.0 1030421
02:00+1з512845 0.0 1030395
05:000з5118855 0.0 1030362
08:00+2з6118016 0.0 1030688
11:00+5з71169100 0.0 10291187
14:00+8з8145691 0.0 10281695
17:00+7зсз71357100 0.0 10271519
20:00+5з31073100 0.4 1025385
14 апреля, ср
ср1423:00+6з51267100 0.4 1024518
02:00+4з4877100 0.0 1023222
05:00+4зюз3784100 0.0 1022224
08:00+5зюз3880100 0.0 1021375
11:00+5зюз3784100 0.5 1019386
14:00+5юз2391100 1.6 1019102
17:00+6з3892100 2.1 1018290
20:00+5юз1297100 0.9 101718
15 апреля, чт
чт1523:00+6ю239787 1.8 101561
02:00+6юз3595100 0.2 101283
05:00+7юз41192100 0.3 1010210
08:00+10зюз6147632 0.0 1008612
11:00+14зюз8136193 0.0 10071245
14:00+11з71371100 0.0 1008862
17:00+3ссз61288100 0.6 1012729
20:00+3ссз696190 0.0 1015608